Погода в Апанасенковском

Россия / Ставропольский край     45°45′07″N   43°33′28″E
темп.,
°C
ветер,
м/с
пор.,
м/с
влажн.,
%
обл.,
%
осадки,
мм/ч
давл.,
гПа
погр.,
м
16 июня, ср
ср1600:00+22ссв00670 0.0 101011
03:00+21вюв11680 0.0 101011
06:00+22юв24690 0.0 1010114
09:00+27в45530 0.0 1010918
12:00+31вюв56400 0.0 10092008
15:00+32в78350 0.0 10082322
18:00+31в58380 0.0 1007508
21:00+25вюв47511 0.0 1007121
17 июня, чт
чт1700:00+22вюв513620 0.1 1006308
03:00+22в51462100 0.1 1005392
06:00+22всв513684 0.7 1005542
09:00+28юв69463 1.9 10061441
12:00+31юз574097 0.4 10062152
15:00+29з985275 0.4 1007909
18:00+22зсз1116798 0.0 1009620
21:00+19зсз101883100 1.1 1015753
18 июня, пт
пт1800:00+18зсз715875 0.3 1015517
03:00+17зсз7139286 0.3 1015441
06:00+18зсз711846 0.0 1016457
09:00+22зсз796827 0.0 1016822
12:00+25зсз67612 0.0 10161011
15:00+27зсз43550 0.0 10151137
18:00+27з22540 0.0 1015927
21:00+23з357532 0.0 101797
19 июня, сб
сб1900:00+22сз357773 0.0 1017134
03:00+21в410750 0.0 1017221
06:00+21в614530 0.0 1018439
09:00+26в912310 0.0 10181055
12:00+30в1012260 0.0 10171782
15:00+32в1013265 0.0 10152341
18:00+30вюв913315 0.0 1015978
21:00+25вюв716351 0.0 1016478
20 июня, вс
вс2000:00+22в616380 0.0 1016474
03:00+21в717320 0.0 1015505
06:00+22в818426 0.0 1015595
09:00+29в1116375 0.0 10141064
12:00+33вюв1317276 0.0 10131703
15:00+34вюв1217255 0.0 10141869
18:00+30вюв1015265 0.0 10151263
21:00+26вюв816260 0.0 1016620